EW5290 Weather Reports


time (UTC)temp
C
wind
direction
speed
KPH
gust
KPH
rain 1hr
cm
rain 24hr
cm
rain mn
cm
humidity
%
barometer
mb
20260502205531 17 258 4.8 17.7 0.00 0.00 0.00 36 1015.3
20260502205032 16 323 1.6 12.9 0.00 0.00 0.00 41 1015.4
20260502204542 16 323 4.8 17.7 0.00 0.00 0.00 37 1015.4
20260502204030 16 269 3.2 20.9 0.00 0.00 0.00 37 1015.5
20260502203533 16 264 8.0 20.9 0.00 0.00 0.00 37 1015.6
20260502203105 16 238 8.0 20.9 0.00 0.00 0.00 40 1015.7
20260502202531 16 271 8.0 19.3 0.00 0.00 0.00 39 1015.8
20260502202030 16 250 4.8 11.3 0.00 0.00 0.00 36 1015.8
20260502201544 16 303 1.6 12.9 0.00 0.00 0.00 40 1015.9
20260502201029 16 293 3.2 20.9 0.00 0.00 0.00 37 1015.9
20260502200531 16 290 4.8 20.9 0.00 0.00 0.00 42 1016.1
20260502200055 16 314 3.2 12.9 0.00 0.00 0.00 41 1016.1
20260502195531 16 212 3.2 16.1 0.00 0.00 0.00 38 1016.0
20260502195028 16 266 3.2 16.1 0.00 0.00 0.00 39 1016.1
20260502194546 16 291 4.8 16.1 0.00 0.00 0.00 38 1016.3
20260502194030 15 292 3.2 16.1 0.00 0.00 0.00 39 1016.4
20260502193532 15 259 6.4 16.1 0.00 0.00 0.00 43 1016.4
20260502193043 15 294 3.2 14.5 0.00 0.00 0.00 39 1016.5
20260502192528 15 263 4.8 14.5 0.00 0.00 0.00 38 1016.6
20260502192029 15 252 4.8 14.5 0.00 0.00 0.00 42 1016.7
20260502191547 15 323 4.8 14.5 0.00 0.00 0.00 42 1016.8
20260502191030 15 262 4.8 14.5 0.00 0.00 0.00 41 1016.8
20260502190529 15 291 3.2 16.1 0.00 0.00 0.00 41 1016.8
20260502190041 15 325 4.8 16.1 0.00 0.00 0.00 38 1017.0
20260502185529 15 241 4.8 14.5 0.00 0.00 0.00 39 1017.0
20260502185032 15 254 3.2 14.5 0.00 0.00 0.00 39 1017.2
20260502184547 15 290 4.8 16.1 0.00 0.00 0.00 39 1017.4
20260502184031 14 271 4.8 16.1 0.00 0.00 0.00 41 1017.4
20260502183530 14 269 4.8 16.1 0.00 0.00 0.00 44 1017.5
20260502183048 14 227 3.2 17.7 0.00 0.00 0.00 40 1017.6
20260502182531 14 317 8.0 17.7 0.00 0.00 0.00 37 1017.7
20260502182030 14 256 4.8 19.3 0.00 0.00 0.00 41 1017.7
20260502181547 13 279 6.4 25.7 0.00 0.00 0.00 40 1017.8
20260502181030 13 250 4.8 25.7 0.00 0.00 0.00 40 1017.8
20260502180530 14 253 6.4 25.7 0.00 0.00 0.00 40 1018.0
20260502164029 12 261 6.4 16.1 0.00 0.00 0.00 42 1018.9
20260502163529 12 293 4.8 12.9 0.00 0.00 0.00 42 1019.1
20260502163057 12 24 3.2 12.9 0.00 0.00 0.00 44 1019.1
20260502162533 12 244 4.8 12.9 0.00 0.00 0.00 42 1019.2
20260502162029 12 309 3.2 14.5 0.00 0.00 0.00 43 1019.1
20260502161558 12 257 4.8 14.5 0.00 0.00 0.00 44 1019.2
20260502161028 11 305 4.8 14.5 0.00 0.00 0.00 44 1019.3
20260502160530 11 259 3.2 14.5 0.00 0.00 0.00 45 1019.3
20260502152031 11 316 3.2 12.9 0.00 0.00 0.00 49 1019.5
20260502151545 11 334 4.8 12.9 0.00 0.00 0.00 50 1019.6
20260502151031 11 279 3.2 11.3 0.00 0.00 0.00 49 1019.6
20260502150528 11 317 4.8 11.3 0.00 0.00 0.00 53 1019.6
20260502130529 3 238 0.0 3.2 0.00 0.00 0.00 88 1020.0
20260502123528 -1 0 0.0 0.0 0.00 0.00 0.00 95 1020.0
20260502123109 -1 0 0.0 0.0 0.00 0.00 0.00 95 1020.0
20260502122528 -1 0 0.0 0.0 0.00 0.00 0.00 95 1019.8
20260502122030 -1 0 0.0 0.0 0.00 0.00 0.00 95 1019.8
20260502121544 -1 0 0.0 0.0 0.00 0.00 0.00 94 1019.9
20260502121030 -1 0 0.0 0.0 0.00 0.00 0.00 94 1019.9
20260502120530 -2 0 0.0 0.0 0.00 0.00 0.00 94 1019.9
20260502115530 -2 0 0.0 0.0 0.00 0.00 0.00 94 1019.9
20260502115030 -2 0 0.0 0.0 0.00 0.00 0.00 93 1019.9
20260502114548 -2 0 0.0 0.0 0.00 0.00 0.00 93 1019.7
20260502114031 -2 0 0.0 0.0 0.00 0.00 0.00 93 1019.7
20260502113535 -2 0 0.0 0.0 0.00 0.00 0.00 93 1019.6
20260502113050 -2 0 0.0 0.0 0.00 0.00 0.00 93 1019.6
20260502112529 -2 0 0.0 0.0 0.00 0.00 0.00 93 1019.5
20260502112031 -2 0 0.0 0.0 0.00 0.00 0.00 93 1019.5
20260502111548 -2 0 0.0 0.0 0.00 0.00 0.00 93 1019.6
20260502111030 -2 0 0.0 0.0 0.00 0.00 0.00 93 1019.6
20260502110530 -2 0 0.0 0.0 0.00 0.00 0.00 92 1019.6
20260502110047 -2 0 0.0 0.0 0.00 0.00 0.00 93 1019.5
20260502105530 -2 0 0.0 0.0 0.00 0.00 0.00 93 1019.5
20260502105030 -2 0 0.0 0.0 0.00 0.00 0.00 93 1019.5
20260502104543 -2 0 0.0 0.0 0.00 0.00 0.00 93 1019.6
20260502104030 -2 0 0.0 0.0 0.00 0.00 0.00 93 1019.5
20260502103530 -2 0 0.0 0.0 0.00 0.00 0.00 92 1019.6
20260502103043 -2 0 0.0 0.0 0.00 0.00 0.00 92 1019.6
20260502102530 -2 0 0.0 0.0 0.00 0.00 0.00 92 1019.5
20260502102030 -2 0 0.0 0.0 0.00 0.00 0.00 92 1019.6
20260502101542 -2 0 0.0 0.0 0.00 0.00 0.00 92 1019.6
20260502101029 -2 0 0.0 0.0 0.00 0.00 0.00 92 1019.6
20260502100529 -2 0 0.0 0.0 0.00 0.00 0.00 92 1019.6
20260502091030 -2 0 0.0 0.0 0.00 0.00 0.00 91 1019.4
20260502090528 -2 0 0.0 0.0 0.00 0.00 0.00 91 1019.4
20260502071030 0 0 0.0 0.0 0.00 0.00 0.00 87 1019.6
20260502070530 0 0 0.0 0.0 0.00 0.00 0.00 86 1019.6
20260502070104 0 0 0.0 0.0 0.00 0.00 0.00 86 1019.6
20260502065529 0 0 0.0 0.0 0.00 0.03 0.00 86 1019.5
20260502065030 0 0 0.0 0.0 0.00 0.03 0.00 86 1019.6
20260502064552 0 0 0.0 0.0 0.00 0.03 0.00 85 1019.6
20260502064030 0 0 0.0 0.0 0.00 0.03 0.00 86 1019.6
20260502063530 0 0 0.0 0.0 0.00 0.03 0.00 85 1019.6
20260502063050 0 0 0.0 0.0 0.00 0.03 0.00 86 1019.6
20260502062530 0 0 0.0 0.0 0.00 0.03 0.00 86 1019.7
20260502062027 0 0 0.0 0.0 0.00 0.03 0.00 86 1019.7
20260502061542 0 0 0.0 0.0 0.00 0.03 0.00 86 1019.7
20260502061028 0 0 0.0 0.0 0.00 0.03 0.00 86 1019.7
20260502060528 0 0 0.0 0.0 0.00 0.03 0.00 86 1019.7
20260502060045 0 0 0.0 0.0 0.00 0.03 0.00 86 1019.6
20260502055529 0 0 0.0 0.0 0.00 0.03 0.00 85 1019.6
20260502055030 0 0 0.0 0.0 0.00 0.03 0.00 85 1019.6
20260502054550 0 0 0.0 0.0 0.00 0.03 0.00 85 1019.5
20260502054030 0 0 0.0 0.0 0.00 0.03 0.00 85 1019.5
20260502053527 0 0 0.0 0.0 0.00 0.03 0.00 84 1019.5
20260502053051 0 0 0.0 0.0 0.00 0.03 0.00 84 1019.5
20260502052530 0 0 0.0 0.0 0.00 0.03 0.00 84 1019.4
20260502052031 1 0 0.0 0.0 0.00 0.03 0.00 83 1019.5
20260502051558 1 0 0.0 0.0 0.00 0.03 0.00 83 1019.5
20260502051027 1 0 0.0 0.0 0.00 0.03 0.00 82 1019.4
20260502050530 1 0 0.0 0.0 0.00 0.03 0.00 82 1019.4
20260502050047 1 0 0.0 0.0 0.00 0.03 0.00 82 1019.4
20260502045532 1 0 0.0 0.0 0.00 0.03 0.03 82 1019.3
20260502045032 1 0 0.0 0.0 0.00 0.03 0.03 82 1019.3
20260502044545 1 0 0.0 0.0 0.00 0.03 0.03 79 1019.3
20260502044032 2 0 0.0 0.0 0.00 0.03 0.03 79 1019.3
20260502043530 2 0 0.0 0.0 0.00 0.03 0.03 78 1019.2
20260502043045 2 0 0.0 0.0 0.00 0.03 0.03 77 1019.3
20260502042530 2 0 0.0 0.0 0.00 0.03 0.03 77 1019.3
20260502042028 2 0 0.0 0.0 0.00 0.03 0.03 76 1019.3
20260502041541 3 0 0.0 0.0 0.00 0.03 0.03 73 1019.3
20260502041030 3 0 0.0 0.0 0.00 0.03 0.03 72 1019.3
20260502040529 3 0 0.0 0.0 0.00 0.03 0.03 71 1019.1
20260502040038 3 0 0.0 0.0 0.00 0.03 0.03 70 1019.2
20260502035530 3 0 0.0 0.0 0.00 0.03 0.03 69 1019.1
20260502035027 3 0 0.0 0.0 0.00 0.03 0.03 68 1019.3
20260502034546 4 0 0.0 0.0 0.00 0.03 0.03 68 1019.2
20260502034030 4 0 0.0 0.0 0.00 0.03 0.03 70 1019.1
20260502033530 4 0 0.0 0.0 0.00 0.03 0.03 69 1019.2
20260502033049 4 0 0.0 0.0 0.00 0.03 0.03 68 1019.2
20260502032530 5 0 0.0 0.0 0.00 0.03 0.03 69 1019.1
20260502032030 5 0 0.0 0.0 0.00 0.03 0.03 70 1019.2
20260502031544 5 0 0.0 0.0 0.00 0.03 0.03 70 1019.2
20260502031034 5 0 0.0 0.0 0.00 0.03 0.03 69 1019.2
20260502030529 6 0 0.0 0.0 0.00 0.03 0.03 68 1019.1
20260502030047 6 0 0.0 0.0 0.00 0.03 0.03 65 1019.1
20260502025530 6 0 0.0 0.0 0.00 0.03 0.03 61 1019.1
20260502025030 6 0 0.0 0.0 0.00 0.03 0.03 60 1019.0
20260502024542 6 0 0.0 0.0 0.00 0.03 0.03 57 1019.0
20260502024030 6 0 0.0 0.0 0.00 0.03 0.03 58 1018.9
20260502023530 6 0 0.0 0.0 0.00 0.03 0.03 58 1018.8
20260502023043 6 0 0.0 0.0 0.00 0.03 0.03 58 1018.8
20260502022530 7 0 0.0 0.0 0.00 0.03 0.03 58 1018.8
20260502022034 7 0 0.0 0.0 0.00 0.03 0.03 58 1018.7
20260502021542 7 0 0.0 0.0 0.00 0.03 0.03 56 1018.7
20260502021030 7 0 0.0 0.0 0.00 0.03 0.03 57 1018.7
20260502020530 7 0 0.0 3.2 0.00 0.03 0.03 56 1018.7
20260502020048 7 0 0.0 3.2 0.00 0.03 0.03 56 1018.6
20260502015533 7 0 0.0 0.0 0.00 0.03 0.03 56 1018.6
20260502015035 7 0 0.0 0.0 0.00 0.03 0.03 57 1018.4
20260502014548 7 0 0.0 1.6 0.00 0.03 0.03 56 1018.5
20260502014033 7 0 0.0 1.6 0.00 0.03 0.03 56 1018.4
20260502013529 7 0 0.0 1.6 0.00 0.03 0.03 55 1018.4
20260502013046 7 0 0.0 1.6 0.00 0.03 0.03 53 1018.3
20260502012529 8 0 0.0 1.6 0.00 0.03 0.03 54 1018.2
20260502012032 8 0 0.0 0.0 0.00 0.03 0.03 52 1018.2
20260502011547 8 0 0.0 1.6 0.00 0.03 0.03 50 1018.2
20260502011030 8 0 0.0 1.6 0.00 0.03 0.03 51 1018.1
20260502010530 8 0 0.0 0.0 0.00 0.03 0.03 51 1018.1
20260502010043 8 0 0.0 1.6 0.00 0.03 0.03 50 1018.1
20260502005530 8 0 0.0 1.6 0.00 0.03 0.03 48 1018.0
20260502005030 9 0 0.0 3.2 0.00 0.03 0.03 49 1017.9
20260502004542 9 0 0.0 3.2 0.00 0.03 0.03 48 1017.8
20260502004035 9 0 0.0 4.8 0.00 0.03 0.03 47 1017.8
20260502003533 9 0 0.0 4.8 0.00 0.03 0.03 48 1017.7
20260502003049 10 0 0.0 6.4 0.00 0.03 0.03 49 1017.7
20260502002529 10 0 0.0 6.4 0.00 0.03 0.03 47 1017.8
20260502002029 10 0 0.0 6.4 0.00 0.03 0.03 46 1017.7
20260502001552 10 0 0.0 4.8 0.00 0.03 0.03 45 1017.6
20260502001030 10 48 0.0 3.2 0.00 0.03 0.03 48 1017.6
20260502000530 10 0 0.0 4.8 0.00 0.03 0.03 45 1017.6
20260502000054 10 0 0.0 4.8 0.00 0.03 0.03 45 1017.6
20260501235530 10 0 0.0 4.8 0.00 0.03 0.03 45 1017.6
20260501235032 10 0 0.0 4.8 0.00 0.03 0.03 46 1017.6
20260501234545 10 0 0.0 4.8 0.00 0.03 0.03 46 1017.6
20260501234029 10 71 0.0 8.0 0.00 0.03 0.03 45 1017.4
20260501233530 10 78 1.6 8.0 0.00 0.03 0.03 45 1017.5
20260501233043 11 0 0.0 6.4 0.00 0.03 0.03 45 1017.5
20260501232530 11 15 0.0 6.4 0.00 0.03 0.03 44 1017.5
20260501232029 11 344 3.2 8.0 0.00 0.03 0.03 43 1017.4
20260501231543 11 0 3.2 8.0 0.00 0.03 0.03 44 1017.5
20260501231030 11 0 0.0 4.8 0.00 0.03 0.03 46 1017.5
20260501230531 11 53 0.0 4.8 0.00 0.03 0.03 46 1017.5
20260501230041 11 44 0.0 4.8 0.00 0.03 0.03 44 1017.4
20260501225530 11 0 1.6 6.4 0.00 0.03 0.03 46 1017.5
20260501225030 11 0 0.0 6.4 0.00 0.03 0.03 44 1017.5
20260501224546 11 5 1.6 6.4 0.00 0.03 0.03 44 1017.4
20260501224029 11 0 1.6 6.4 0.00 0.03 0.03 45 1017.4
20260501223533 11 0 0.0 6.4 0.00 0.03 0.03 44 1017.4
20260501223048 11 0 3.2 6.4 0.00 0.03 0.03 44 1017.5
20260501222533 11 360 1.6 4.8 0.00 0.03 0.03 44 1017.5
20260501222030 11 82 0.0 8.0 0.00 0.03 0.03 46 1017.5
20260501221554 11 0 1.6 8.0 0.00 0.03 0.03 45 1017.4
20260501221030 11 67 1.6 6.4 0.00 0.03 0.03 45 1017.4
20260501220530 11 78 0.0 9.7 0.00 0.03 0.03 47 1017.4
20260501220044 11 323 1.6 9.7 0.00 0.03 0.03 44 1017.4
20260501215529 11 0 0.0 6.4 0.00 0.03 0.03 46 1017.4
20260501215030 11 14 1.6 11.3 0.00 0.03 0.03 43 1017.3
20260501214544 11 94 1.6 11.3 0.00 0.03 0.03 44 1017.4
20260501214029 11 322 1.6 11.3 0.00 0.03 0.03 42 1017.3
20260501213530 11 5 1.6 8.0 0.00 0.03 0.03 42 1017.4
20260501213050 11 0 0.0 8.0 0.00 0.03 0.03 43 1017.4
20260501212529 11 63 3.2 8.0 0.00 0.03 0.03 40 1017.4
20260501212029 12 342 1.6 8.0 0.00 0.03 0.03 42 1017.3
20260501211547 12 346 1.6 11.3 0.00 0.03 0.03 43 1017.3
20260501211029 12 47 1.6 12.9 0.00 0.03 0.03 45 1017.2
20260501210530 11 88 3.2 12.9 0.00 0.03 0.03 47 1017.3
20260501210046 11 11 1.6 11.3 0.00 0.03 0.03 43 1017.4